Home > Time Zones > World Clock > Weather > India > Surat > Past weeks

Flag for India Weather past 2 weeks in Surat, Gujarat, India

Now
61 °F

Haze.


Feels Like: 61 °F
Forecast: 64 / 81 °F
Wind: 5 mph from East

Location: Ahmadabad Airport

Current Time: Dec 22, 2014 at 9:45:09 AM

Latest Report: Dec 22, 2014 at 8:40 AM


Visibility: 2 mi

Pressure: 29.95 "Hg

Humidity: 59%

Dew point: 46 °F

Location of SuratLocation

Historic Weather in Surat — Graph

°F

Surat temperature yesterday

Maximum temperature yesterday: 81 °F (at 1:40 PM)
Minimum temperature yesterday: 50 °F (at 5:40 AM)
Average temperature yesterday: 64 °F

Past Weeks' High & Low Weather Summary

 TemperatureHumidityPressure
High90 °F (Dec 8, 3:10 PM)88% (Dec 13, 5:10 AM)30.18 "Hg (Dec 13, 5:10 AM)
Low46 °F (Dec 15, 5:40 AM)18% (Dec 15, 2:10 PM)29.80 "Hg (Dec 12, 4:10 PM)
Average67 °F51%29.98 "Hg
* Reported Dec 7 7:40 AM — Dec 22 8:10 AM, Surat, Weather by CustomWeather, © 2014

Note: Actual official high and low records may vary slightly from our data, if they occured in-between our weather recording intervals... More about our weather records

Advertising

Surat weather history for previous 24 hours

 ConditionsComfort  
Time TempWeatherWind HumidityBarometerVisibility
8:10 AM
Dec 22
57 °FHaze.6 mph63%29.95 "Hg1 mi
7:40 AM54 °FHaze.2 mph72%29.95 "Hg1 mi
6:10 AM52 °FHaze.3 mph72%29.92 "Hg2 mi
5:40 AM54 °FHaze.3 mph67%29.89 "Hg2 mi
5:10 AM54 °FHaze.3 mph67%29.89 "Hg2 mi
4:40 AM55 °FHaze.5 mph63%29.89 "Hg2 mi
3:40 AM54 °FHaze.6 mph67%29.89 "Hg2 mi
2:40 AM54 °FHaze.No wind67%29.92 "Hg2 mi
1:40 AM54 °FHaze.No wind77%29.92 "Hg2 mi
1:10 AM55 °FHaze.2 mph82%29.95 "Hg2 mi
12:10 AM55 °FHaze.No wind82%29.95 "Hg2 mi
11:10 PM
Dec 21
57 °FHaze.2 mph82%29.95 "Hg2 mi
10:40 PM59 °FHaze.2 mph72%29.95 "Hg2 mi
9:40 PM61 °FHaze.3 mph63%29.95 "Hg2 mi
8:40 PM64 °FClear.No wind56%29.95 "Hg2 mi
7:40 PM66 °FClear.No wind52%29.92 "Hg2 mi
7:10 PM66 °FClear.No wind52%29.92 "Hg2 mi
6:40 PM70 °FClear.No wind50%29.89 "Hg2 mi
6:10 PM73 °FClear.2 mph44%29.89 "Hg3 mi
5:40 PM77 °FClear.2 mph36%29.86 "Hg4 mi
5:10 PM79 °FClear.3 mph34%29.86 "Hg4 mi
4:40 PM81 °FClear.7 mph32%29.86 "Hg4 mi
3:40 PM81 °FClear.6 mph34%29.86 "Hg4 mi
2:40 PM81 °FClear.3 mph34%29.89 "Hg4 mi
1:40 PM81 °FClear.7 mph34%29.92 "Hg4 mi
1:10 PM79 °FClear.5 mph39%29.95 "Hg4 mi
12:40 PM77 °FClear.6 mph42%29.98 "Hg4 mi
11:40 AM73 °FClear.7 mph44%30.01 "Hg3 mi
9:10 AM61 °FClear.7 mph59%30.01 "Hg1 mi
Weather by CustomWeather, © 2014

See weather overviewHow to use our weather pages